CAPE
1267 982 752 689 433 472 775 553 72 15 0 0 0 0 0 0 0 0 0 0 0 0
1218 1037 825 618 535 474 633 86 0 0 0 0 0 0 0 0 0 0 0 0 0 0
1001 1102 908 673 666 546 283 58 0 0 0 0 0 0 0 0 0 0 0 0 0 0
1192 1187 922 712 652 250 88 15 0 0 0 0 0 0 0 0 0 0 0 0 0 0
1181 1064 887 782 261 11 8 0 0 0 0 0 0 0 0 0 0 0 0 0 0 0
1137 970 938 327 66 1 0 0 0 0 0 0 0 0 0 0 0 0 0 0 0 0
1053 936 415 43 1 2 0 0 0 0 0 0 0 0 0 0 0 0 0 0 0 0
916 533 51 1 0 0 1 0 0 0 0 0 0 0 0 0 0 0 0 0 0 0
543 41 1 1 4 1 1 0 0 0 0 0 0 0 0 0 0 0 0 0 0 0
71 1 2 1 1 0 0 0 0 0 0 0 0 0 0 0 0 0 0 0 0 0
0 1 0 0 1 0 0 0 0 0 0 0 0 0 0 0 0 0 0 0 0 0
2 0 0 5 0 0 0 0 0 0 0 0 0 0 0 0 0 0 0 0 0 0
1 0 1 2 0 0 0 0 0 0 0 0 0 0 0 0 0 0 0 0 0 0
0 1 1 0 0 0 0 0 0 0 0 0 0 0 0 0 0 0 0 0 0 0
CIN
-167 -148 -161 -205 -231 -209 -138 -205 -447 -528 0 0 0 0 0 0 0 0 0 0 0 0
-113 -143 -125 -180 -204 -182 -147 -366 -1 0 0 0 0 0 0 0 0 0 0 0 0 0
-119 -119 -137 -148 -113 -121 -220 -329 -1 0 0 0 0 0 0 0 0 0 0 0 0 0
-77 -74 -104 -80 -46 -150 -228 -381 0 0 0 0 0 0 0 0 0 0 0 0 0 0
-85 -71 -64 -32 -98 -23 -128 0 0 0 0 0 0 0 0 0 0 0 0 0 0 0
-56 -63 -37 -61 -187 -198 -1 0 0 0 0 0 0 0 0 0 0 0 0 0 0 0
-41 -64 -50 -103 0 0 -1 0 0 0 0 0 0 0 0 0 0 0 0 0 0 0
-40 -28 -119 0 0 0 0 -1 0 0 0 0 0 0 0 0 0 0 0 0 0 0
-24 -103 0 0 0 0 0 0 0 0 0 0 0 0 0 0 0 0 0 0 0 0
-89 0 0 0 0 0 0 0 0 0 0 0 0 0 0 0 0 0 0 0 0 0
0 0 0 0 0 0 0 0 0 0 0 0 0 0 0 0 0 0 0 0 0 0
0 0 0 0 0 0 0 0 0 0 0 0 0 0 0 0 0 0 0 0 0 0
0 0 0 0 0 0 0 0 0 0 0 0 0 0 0 0 0 0 0 0 0 0
0 0 -1 -1 0 0 0 0 0 0 0 0 0 0 0 0 0 0 0 0 0 0
Wind_Speed
22 12 12 17 15 12 12 11 12 11 12 12 12 10 10 8 7 8 8 9 7 7
14 16 14 15 16 12 12 11 13 14 14 13 12 12 11 8 9 9 8 8 9 8
15 17 17 15 17 17 15 17 16 15 16 14 12 11 12 10 9 11 8 7 11 8
17 17 17 16 16 18 18 18 17 18 16 14 13 12 13 11 12 13 11 9 10 9
20 19 18 17 17 20 19 17 19 18 17 14 13 13 14 14 12 12 11 9 9 8
19 19 19 16 17 18 20 19 17 18 18 14 13 14 14 14 13 12 10 9 9 7
21 20 18 17 21 22 18 20 18 15 17 14 14 15 15 15 14 13 11 10 7 7
19 19 20 19 20 22 22 17 18 18 15 13 13 11 16 15 14 13 11 8 8 8
21 22 22 22 22 21 20 21 21 17 15 12 9 17 22 18 13 11 11 9 7 7
25 25 23 23 24 24 19 19 19 18 15 14 15 23 23 22 12 12 10 9 7 8
28 28 27 24 24 23 19 19 17 17 17 15 13 23 23 22 14 13 10 9 8 8
24 29 31 27 19 24 18 16 18 16 16 15 14 23 21 17 13 12 9 7 7 7
23 20 31 31 19 20 18 18 14 15 12 18 16 20 18 15 10 11 6 6 5 9
26 24 21 27 20 20 18 16 16 14 10 12 14 14 16 13 10 8 6 5 4 5
Wind_Direction
179 176 174 169 165 176 168 156 149 134 126 120 118 115 111 107 103 100 98 96 84 86
181 167 171 168 164 164 155 145 142 134 125 120 122 123 118 112 106 101 95 86 81 77
176 176 167 165 163 165 151 148 141 134 124 124 125 118 115 108 106 97 86 85 82 73
178 175 164 166 165 159 148 144 140 130 127 128 125 121 114 106 104 96 91 81 82 80
171 168 166 164 161 148 140 145 133 129 128 127 126 122 118 111 106 102 95 90 88 75
169 167 162 155 149 139 134 135 129 127 122 128 125 115 107 107 102 95 93 93 87 87
174 164 146 151 141 135 135 131 123 120 114 124 119 115 114 109 103 99 90 81 80 84
163 145 140 144 137 127 133 123 113 108 111 121 121 123 116 111 107 104 95 79 74 66
143 142 137 133 124 114 117 116 109 114 118 119 109 109 115 113 112 104 97 90 70 67
149 136 135 127 118 113 108 104 111 107 111 107 108 104 103 106 103 98 93 90 85 73
135 126 117 111 111 107 107 110 114 111 111 112 111 107 106 105 101 97 93 92 89 86
123 118 110 106 100 106 111 111 109 111 116 120 115 109 107 105 102 96 90 89 87 87
92 106 113 108 119 104 107 107 111 105 116 122 115 109 108 110 108 102 98 77 77 69
87 98 100 109 108 111 111 108 101 105 106 117 122 118 114 110 109 117 106 99 68 46